Weather History for Albany, GA

Change the Weather History Date:

Wednesday, February 5, 2014

  Actual Average Record
Temperature  
Mean Temperature 57 °F 51 °F  
Max Temperature 71 °F 62 °F 84 °F (1957)
Min Temperature 42 °F 39 °F 13 °F (1996)
Degree Days  
Heating Degree Days 8 14  
Month to date heating degree days 28 73  
Since 1 July heating degree days 1298 1277  
Cooling Degree Days 0 0  
Month to date cooling degree days 1 0  
Year to date cooling degree days 1 4  
Growing Degree Days 7 (Base 50)    
Moisture  
Dew Point 55 °F    
Average Humidity 69    
Maximum Humidity 100    
Minimum Humidity 37    
Precipitation  
Precipitation 0.24 in 0.13 in 0.24 in (2014)
Month to date precipitation 0.48 0.63  
Year to date precipitation 2.13 5.45  
Sea Level Pressure  
Sea Level Pressure 30.03 in    
Wind  
Wind Speed 11 mph (WNW)    
Max Wind Speed 18 mph    
Max Gust Speed 24 mph    
Visibility 8 miles    
Events Rain    
T = Trace of Precipitation, MM = Missing Value Source: NWS Daily Summary

Daily Weather History Graph

Daily Weather History Graph

Search for Another Location

Airport:

Trip Planner

Search our weather history database for the weather conditions in past years. The results will help you decide how hot, cold, wet, or windy it might be!

Date:

Astronomy

Feb. 05, 2014 Rise Set
Actual Time 7:26 AM EST 6:15 PM EST
Civil Twilight 7:01 AM EST 6:40 PM EST
Nautical Twilight 6:32 AM EST 7:09 PM EST
Astronomical Twilight 6:04 AM EST 7:37 PM EST
Moon 11:07 AM EST (2/5) No Moon Set
Length of Visible Light 11h 38m
Length of Day
10h 48m
Waxing Crescent, 39% of the Moon is Illuminated
Feb 5
Waxing Crescent
Feb 6
First Quarter
Feb 14
Full
Feb 22
Last Quarter
Mar 1
New

Hourly Weather History & Observations

Time (EST) Temp. Windchill Dew Point Humidity Pressure Visibility Wind Dir Wind Speed Gust Speed Precip Events Conditions
12:53 AM 61.0 °F - 60.1 °F 97% 30.01 in 5.0 mi Calm Calm - N/A   Overcast
1:21 AM 64.4 °F - 62.6 °F 94% 29.99 in 6.0 mi South 6.9 mph - N/A   Overcast
1:53 AM 66.0 °F - 64.9 °F 96% 29.99 in 7.0 mi SSW 10.4 mph - N/A   Overcast
2:53 AM 66.9 °F - 64.9 °F 93% 29.97 in 7.0 mi SSW 9.2 mph - N/A   Overcast
3:53 AM 66.9 °F - 66.0 °F 97% 29.94 in 10.0 mi South 13.8 mph 20.7 mph N/A   Overcast
4:53 AM 69.1 °F - 66.0 °F 90% 29.94 in 10.0 mi SSW 12.7 mph - N/A   Overcast
5:43 AM 69.8 °F - 66.2 °F 88% 29.94 in 10.0 mi SSW 13.8 mph - N/A   Overcast
5:53 AM 70.0 °F - 66.9 °F 90% 29.94 in 10.0 mi SSW 15.0 mph 21.9 mph N/A   Overcast
6:53 AM 71.1 °F - 68.0 °F 90% 29.94 in 10.0 mi SW 13.8 mph - N/A   Overcast
7:23 AM 69.8 °F - 68.0 °F 94% 29.97 in 2.5 mi WNW 15.0 mph 24.2 mph 0.06 in Rain Heavy Rain
7:29 AM 68.0 °F - 66.2 °F 94% 29.97 in 1.2 mi NW 13.8 mph 24.2 mph 0.16 in Rain Heavy Rain
7:41 AM 66.2 °F - 64.4 °F 94% 29.98 in 1.8 mi WNW 9.2 mph - 0.21 in Rain Heavy Rain
7:51 AM 66.2 °F - 64.4 °F 94% 29.99 in 1.8 mi NW 8.1 mph - 0.24 in Rain Light Rain
7:53 AM 66.0 °F - 64.9 °F 96% 29.99 in 2.5 mi WNW 8.1 mph - 0.24 in Rain Light Rain
7:57 AM 66.2 °F - 64.4 °F 94% 29.99 in 6.0 mi West 6.9 mph - 0.00 in Rain Light Rain
8:17 AM 66.2 °F - 62.6 °F 88% 29.99 in 10.0 mi West 8.1 mph - 0.00 in   Overcast
8:53 AM 66.9 °F - 63.0 °F 87% 30.00 in 10.0 mi West 8.1 mph - 0.00 in   Mostly Cloudy
9:40 AM 66.2 °F - 62.6 °F 88% 30.02 in 10.0 mi West 9.2 mph - N/A   Mostly Cloudy
9:53 AM 66.9 °F - 62.1 °F 84% 30.02 in 10.0 mi West 10.4 mph - N/A   Mostly Cloudy
10:53 AM 68.0 °F - 57.0 °F 68% 30.04 in 10.0 mi WNW 11.5 mph - N/A   Mostly Cloudy
11:53 AM 69.1 °F - 48.9 °F 49% 30.05 in 10.0 mi NW 11.5 mph 18.4 mph N/A   Scattered Clouds
12:53 PM 68.0 °F - 50.0 °F 52% 30.04 in 10.0 mi NW 13.8 mph - N/A   Mostly Cloudy
1:53 PM 66.0 °F - 46.0 °F 48% 30.02 in 10.0 mi West 11.5 mph - N/A   Mostly Cloudy
2:53 PM 68.0 °F - 41.0 °F 37% 30.02 in 10.0 mi NNW 17.3 mph 23.0 mph N/A   Scattered Clouds
3:53 PM 64.9 °F - 41.0 °F 42% 30.05 in 10.0 mi NW 13.8 mph - N/A   Clear
4:53 PM 62.1 °F - 43.0 °F 50% 30.07 in 10.0 mi NW 16.1 mph 20.7 mph N/A   Clear
5:53 PM 57.0 °F - 43.0 °F 59% 30.10 in 10.0 mi NW 10.4 mph - N/A   Clear
6:53 PM 53.1 °F - 41.0 °F 64% 30.12 in 10.0 mi WNW 12.7 mph - N/A   Clear
7:53 PM 48.9 °F - 39.0 °F 69% 30.16 in 10.0 mi NW 11.5 mph 19.6 mph N/A   Clear
8:53 PM 46.0 °F 41.4 °F 37.0 °F 71% 30.19 in 10.0 mi NW 9.2 mph - N/A   Clear
9:53 PM 44.1 °F 40.8 °F 36.0 °F 73% 30.20 in 10.0 mi NW 5.8 mph - N/A   Clear
10:53 PM 43.0 °F 38.8 °F 35.1 °F 74% 30.22 in 10.0 mi NNW 6.9 mph - N/A   Clear
11:53 PM 42.1 °F 37.1 °F 33.1 °F 70% 30.24 in 10.0 mi North 8.1 mph - N/A   Partly Cloudy